Time,TemperatureF,DewpointF,PressureIn,WindDirection,WindDirectionDegrees,WindSpeedMPH,WindSpeedGustMPH,Humidity,HourlyPrecipIn,Conditions,Clouds,dailyrainin,SoftwareType,DateUTC
2013-06-22 00:09:00,78.5,73.0,30.05,SE,128,3.0,-999.0,84,-99.99,,,0.00,weatherlink.com 1.10,2013-06-22 04:09:00,
2013-06-22 00:24:00,78.6,73.0,30.05,SE,129,4.0,-999.0,83,-99.99,,,0.00,weatherlink.com 1.10,2013-06-22 04:24:00,
2013-06-22 00:39:00,78.6,73.0,30.05,East,98,0.0,-999.0,83,-99.99,,,0.00,weatherlink.com 1.10,2013-06-22 04:39:00,
2013-06-22 00:54:00,78.3,73.0,30.05,SE,142,1.0,-999.0,83,-99.99,,,0.00,weatherlink.com 1.10,2013-06-22 04:54:00,
2013-06-22 01:09:00,78.3,73.0,30.04,SE,142,2.0,-999.0,84,-99.99,,,0.00,weatherlink.com 1.10,2013-06-22 05:09:00,
2013-06-22 01:24:00,78.3,73.0,30.03,ESE,105,1.0,-999.0,84,-99.99,,,0.00,weatherlink.com 1.10,2013-06-22 05:24:00,
2013-06-22 01:39:00,78.4,74.0,30.03,East,95,3.0,-999.0,85,-99.99,,,0.00,weatherlink.com 1.10,2013-06-22 05:39:00,
2013-06-22 01:54:00,78.1,73.0,30.02,East,95,1.0,-999.0,85,-99.99,,,0.00,weatherlink.com 1.10,2013-06-22 05:54:00,
2013-06-22 02:09:00,78.0,74.0,30.02,East,96,1.0,-999.0,86,-99.99,,,0.00,weatherlink.com 1.10,2013-06-22 06:09:00,
2013-06-22 02:24:00,78.2,74.0,30.02,East,96,0.0,-999.0,86,-99.99,,,0.00,weatherlink.com 1.10,2013-06-22 06:24:00,
2013-06-22 02:39:00,78.2,74.0,30.01,East,96,1.0,-999.0,86,-99.99,,,0.00,weatherlink.com 1.10,2013-06-22 06:39:00,
2013-06-22 02:54:00,78.2,74.0,30.01,East,95,1.0,-999.0,87,-99.99,,,0.00,weatherlink.com 1.10,2013-06-22 06:54:00,
2013-06-22 03:09:00,78.3,74.0,30.01,East,96,2.0,-999.0,87,-99.99,,,0.00,weatherlink.com 1.10,2013-06-22 07:09:00,
2013-06-22 03:24:00,78.3,74.0,30.01,East,97,1.0,-999.0,87,-99.99,,,0.00,weatherlink.com 1.10,2013-06-22 07:24:00,
2013-06-22 03:39:00,78.1,74.0,30.00,East,88,2.0,-999.0,87,-99.99,,,0.00,weatherlink.com 1.10,2013-06-22 07:39:00,
2013-06-22 03:54:00,78.0,74.0,30.00,East,94,2.0,-999.0,86,-99.99,,,0.00,weatherlink.com 1.10,2013-06-22 07:54:00,
2013-06-22 04:09:00,77.9,74.0,30.00,East,101,2.0,-999.0,86,-99.99,,,0.00,weatherlink.com 1.10,2013-06-22 08:09:00,
2013-06-22 04:24:00,77.9,74.0,30.00,ESE,102,1.0,-999.0,86,-99.99,,,0.00,weatherlink.com 1.10,2013-06-22 08:24:00,
2013-06-22 04:39:00,78.0,74.0,30.01,ESE,107,3.0,-999.0,86,-99.99,,,0.00,weatherlink.com 1.10,2013-06-22 08:39:00,
2013-06-22 04:54:00,77.8,73.0,30.01,ESE,118,0.0,-999.0,86,-99.99,,,0.00,weatherlink.com 1.10,2013-06-22 08:54:00,
2013-06-22 05:09:00,77.8,74.0,30.00,ESE,118,1.0,-999.0,87,-99.99,,,0.00,weatherlink.com 1.10,2013-06-22 09:09:00,
2013-06-22 05:24:00,77.8,74.0,30.01,ESE,119,2.0,-999.0,88,-99.99,,,0.00,weatherlink.com 1.10,2013-06-22 09:24:00,
2013-06-22 05:39:00,77.8,74.0,30.01,ESE,119,2.0,-999.0,88,-99.99,,,0.00,weatherlink.com 1.10,2013-06-22 09:39:00,
2013-06-22 05:54:00,77.8,74.0,30.01,SE,128,1.0,-999.0,89,-99.99,,,0.00,weatherlink.com 1.10,2013-06-22 09:54:00,
2013-06-22 06:09:00,77.8,75.0,30.01,SE,129,4.0,-999.0,90,-99.99,,,0.00,weatherlink.com 1.10,2013-06-22 10:09:00,
2013-06-22 06:24:00,77.8,75.0,30.01,ESE,119,1.0,-999.0,90,-99.99,,,0.00,weatherlink.com 1.10,2013-06-22 10:24:00,
2013-06-22 06:39:00,77.6,75.0,30.02,SE,140,4.0,-999.0,90,-99.99,,,0.00,weatherlink.com 1.10,2013-06-22 10:39:00,
2013-06-22 06:54:00,77.7,75.0,30.02,SE,142,4.0,-999.0,91,-99.99,,,0.00,weatherlink.com 1.10,2013-06-22 10:54:00,
2013-06-22 07:09:00,77.9,75.0,30.02,ESE,122,2.0,-999.0,91,-99.99,,,0.00,weatherlink.com 1.10,2013-06-22 11:09:00,
2013-06-22 07:24:00,78.0,75.0,30.02,SE,141,0.0,-999.0,90,-99.99,,,0.00,weatherlink.com 1.10,2013-06-22 11:24:00,
2013-06-22 07:39:00,78.7,76.0,30.03,SSE,152,3.0,-999.0,90,-99.99,,,0.00,weatherlink.com 1.10,2013-06-22 11:39:00,
2013-06-22 07:54:00,79.3,76.0,30.03,SE,126,4.0,-999.0,90,-99.99,,,0.00,weatherlink.com 1.10,2013-06-22 11:54:00,
2013-06-22 08:09:00,79.7,76.0,30.04,ESE,120,3.0,-999.0,89,-99.99,,,0.00,weatherlink.com 1.10,2013-06-22 12:09:00,
2013-06-22 08:24:00,80.3,76.0,30.05,SE,132,3.0,-999.0,87,-99.99,,,0.00,weatherlink.com 1.10,2013-06-22 12:24:00,
2013-06-22 08:39:00,81.2,77.0,30.05,SSE,148,1.0,-999.0,86,-99.99,,,0.00,weatherlink.com 1.10,2013-06-22 12:39:00,
2013-06-22 08:54:00,81.7,76.0,30.05,SSE,161,3.0,-999.0,83,-99.99,,,0.00,weatherlink.com 1.10,2013-06-22 12:54:00,
2013-06-22 09:09:00,82.0,76.0,30.05,SSE,157,4.0,-999.0,81,-99.99,,,0.00,weatherlink.com 1.10,2013-06-22 13:09:00,
2013-06-22 09:24:00,82.5,75.0,30.05,ESE,117,1.0,-999.0,79,-99.99,,,0.00,weatherlink.com 1.10,2013-06-22 13:24:00,
2013-06-22 09:39:00,83.2,76.0,30.06,SSE,156,2.0,-999.0,78,-99.99,,,0.00,weatherlink.com 1.10,2013-06-22 13:39:00,
2013-06-22 09:54:00,83.4,75.0,30.06,SSE,150,2.0,-999.0,76,-99.99,,,0.00,weatherlink.com 1.10,2013-06-22 13:54:00,
2013-06-22 10:09:00,84.1,74.0,30.06,South,174,7.0,-999.0,72,-99.99,,,0.00,weatherlink.com 1.10,2013-06-22 14:09:00,
2013-06-22 10:24:00,84.3,73.0,30.06,SSE,154,4.0,-999.0,69,-99.99,,,0.01,weatherlink.com 1.10,2013-06-22 14:24:00,
2013-06-22 10:39:00,85.0,74.0,30.07,South,182,2.0,-999.0,69,-99.99,,,0.01,weatherlink.com 1.10,2013-06-22 14:39:00,
2013-06-22 10:54:00,85.9,74.0,30.07,South,190,3.0,-999.0,67,-99.99,,,0.01,weatherlink.com 1.10,2013-06-22 14:54:00,
2013-06-22 11:09:00,85.9,73.0,30.07,SSW,197,3.0,-999.0,66,-99.99,,,0.01,weatherlink.com 1.10,2013-06-22 15:09:00,
2013-06-22 11:24:00,85.3,74.0,30.07,South,175,5.0,-999.0,68,-99.99,,,0.01,weatherlink.com 1.10,2013-06-22 15:24:00,
2013-06-22 11:39:00,85.1,72.0,30.07,South,180,5.0,-999.0,65,-99.99,,,0.01,weatherlink.com 1.10,2013-06-22 15:39:00,
2013-06-22 11:54:00,85.7,73.0,30.07,SSW,192,4.0,-999.0,66,-99.99,,,0.01,weatherlink.com 1.10,2013-06-22 15:54:00,
2013-06-22 12:09:00,86.0,72.0,30.07,SSW,195,0.0,-999.0,64,-99.99,,,0.01,weatherlink.com 1.10,2013-06-22 16:09:00,
2013-06-22 12:24:00,86.0,72.0,30.07,South,186,3.0,-999.0,64,-99.99,,,0.01,weatherlink.com 1.10,2013-06-22 16:24:00,
2013-06-22 12:39:00,87.1,72.0,30.07,South,186,3.0,-999.0,62,-99.99,,,0.01,weatherlink.com 1.10,2013-06-22 16:39:00,
2013-06-22 12:54:00,87.1,72.0,30.07,South,187,0.0,-999.0,62,-99.99,,,0.01,weatherlink.com 1.10,2013-06-22 16:54:00,
2013-06-22 13:09:00,88.0,72.0,30.06,SSW,194,2.0,-999.0,60,-99.99,,,0.01,weatherlink.com 1.10,2013-06-22 17:09:00,
2013-06-22 13:24:00,88.1,73.0,30.06,SSW,196,0.0,-999.0,61,-99.99,,,0.01,weatherlink.com 1.10,2013-06-22 17:24:00,
2013-06-22 13:39:00,88.2,72.0,30.06,SSW,198,1.0,-999.0,59,-99.99,,,0.01,weatherlink.com 1.10,2013-06-22 17:39:00,
2013-06-22 13:54:00,88.2,73.0,30.05,South,190,2.0,-999.0,60,-99.99,,,0.01,weatherlink.com 1.10,2013-06-22 17:54:00,
2013-06-22 14:09:00,88.8,74.0,30.05,SSW,192,3.0,-999.0,61,-99.99,,,0.01,weatherlink.com 1.10,2013-06-22 18:09:00,
2013-06-22 14:24:00,89.1,73.0,30.05,SSW,198,1.0,-999.0,60,-99.99,,,0.01,weatherlink.com 1.10,2013-06-22 18:24:00,
2013-06-22 14:39:00,89.1,73.0,30.04,SSW,200,1.0,-999.0,60,-99.99,,,0.01,weatherlink.com 1.10,2013-06-22 18:39:00,
2013-06-22 14:54:00,89.1,73.0,30.04,SSW,201,1.0,-999.0,60,-99.99,,,0.01,weatherlink.com 1.10,2013-06-22 18:54:00,
2013-06-22 15:09:00,88.6,73.0,30.03,SSW,200,0.0,-999.0,61,-99.99,,,0.01,weatherlink.com 1.10,2013-06-22 19:09:00,
2013-06-22 15:24:00,88.8,75.0,30.03,WSW,241,1.0,-999.0,63,-99.99,,,0.01,weatherlink.com 1.10,2013-06-22 19:24:00,
2013-06-22 15:39:00,89.2,74.0,30.03,WSW,241,1.0,-999.0,62,-99.99,,,0.01,weatherlink.com 1.10,2013-06-22 19:39:00,
2013-06-22 15:54:00,89.2,74.0,30.03,WSW,239,1.0,-999.0,61,-99.99,,,0.01,weatherlink.com 1.10,2013-06-22 19:54:00,
2013-06-22 16:09:00,89.3,74.0,30.02,WSW,253,0.0,-999.0,60,-99.99,,,0.01,weatherlink.com 1.10,2013-06-22 20:09:00,
2013-06-22 16:24:00,89.4,74.0,30.02,West,259,0.0,-999.0,61,-99.99,,,0.01,weatherlink.com 1.10,2013-06-22 20:24:00,
2013-06-22 16:39:00,89.4,75.0,30.02,WSW,257,0.0,-999.0,63,-99.99,,,0.01,weatherlink.com 1.10,2013-06-22 20:39:00,
2013-06-22 16:54:00,89.6,75.0,30.02,West,277,1.0,-999.0,62,-99.99,,,0.01,weatherlink.com 1.10,2013-06-22 20:54:00,
2013-06-22 17:09:00,89.7,75.0,30.01,West,263,1.0,-999.0,62,-99.99,,,0.01,weatherlink.com 1.10,2013-06-22 21:09:00,
2013-06-22 17:24:00,89.3,76.0,30.01,West,261,1.0,-999.0,65,-99.99,,,0.01,weatherlink.com 1.10,2013-06-22 21:24:00,
2013-06-22 17:39:00,88.1,75.0,30.01,West,267,4.0,-999.0,65,-99.99,,,0.01,weatherlink.com 1.10,2013-06-22 21:39:00,
2013-06-22 17:54:00,88.2,75.0,30.00,West,281,6.0,-999.0,65,-99.99,,,0.01,weatherlink.com 1.10,2013-06-22 21:54:00,
2013-06-22 18:09:00,88.1,74.0,29.99,SW,223,2.0,-999.0,64,-99.99,,,0.01,weatherlink.com 1.10,2013-06-22 22:09:00,
2013-06-22 18:24:00,88.3,76.0,30.00,NW,313,5.0,-999.0,68,-99.99,,,0.01,weatherlink.com 1.10,2013-06-22 22:24:00,
2013-06-22 18:39:00,87.5,76.0,30.00,NW,304,5.0,-999.0,68,-99.99,,,0.01,weatherlink.com 1.10,2013-06-22 22:39:00,
2013-06-22 18:54:00,86.8,76.0,30.01,NW,304,2.0,-999.0,71,-99.99,,,0.01,weatherlink.com 1.10,2013-06-22 22:54:00,
2013-06-22 19:09:00,86.5,76.0,30.00,NW,313,10.0,-999.0,71,-99.99,,,0.01,weatherlink.com 1.10,2013-06-22 23:09:00,
2013-06-22 19:24:00,85.9,76.0,30.01,NW,324,4.0,-999.0,73,-99.99,,,0.01,weatherlink.com 1.10,2013-06-22 23:24:00,
2013-06-22 19:39:00,85.2,76.0,30.01,North,360,11.0,-999.0,74,-99.99,,,0.01,weatherlink.com 1.10,2013-06-22 23:39:00,
2013-06-22 19:54:00,85.0,76.0,30.02,ENE,69,14.0,-999.0,75,-99.99,,,0.01,weatherlink.com 1.10,2013-06-22 23:54:00,
2013-06-22 20:09:00,80.8,74.0,30.04,ENE,63,13.0,-999.0,80,-99.99,,,0.01,weatherlink.com 1.10,2013-06-23 00:09:00,
2013-06-22 20:25:00,78.1,73.0,30.04,East,84,17.0,-999.0,83,-99.99,,,0.01,weatherlink.com 1.10,2013-06-23 00:25:00,
2013-06-22 20:39:00,76.6,73.0,30.05,ESE,119,3.0,-999.0,89,-99.99,,,0.01,weatherlink.com 1.10,2013-06-23 00:39:00,
2013-06-22 20:54:00,75.8,73.0,30.03,ESE,118,1.0,-999.0,90,-99.99,,,0.01,weatherlink.com 1.10,2013-06-23 00:54:00,
2013-06-22 21:09:00,76.0,73.0,30.02,East,89,5.0,-999.0,91,-99.99,,,0.01,weatherlink.com 1.10,2013-06-23 01:09:00,
2013-06-22 21:24:00,76.8,74.0,30.02,East,80,5.0,-999.0,91,-99.99,,,0.01,weatherlink.com 1.10,2013-06-23 01:24:00,
2013-06-22 21:39:00,78.7,75.0,30.01,NE,42,5.0,-999.0,89,-99.99,,,0.01,weatherlink.com 1.10,2013-06-23 01:39:00,
2013-06-22 21:54:00,79.0,75.0,30.02,NNE,27,4.0,-999.0,86,-99.99,,,0.01,weatherlink.com 1.10,2013-06-23 01:54:00,
2013-06-22 22:09:00,79.5,74.0,30.02,North,360,4.0,-999.0,84,-99.99,,,0.01,weatherlink.com 1.10,2013-06-23 02:09:00,
2013-06-22 22:24:00,79.9,74.0,30.02,NNE,30,4.0,-999.0,82,-99.99,,,0.01,weatherlink.com 1.10,2013-06-23 02:24:00,
2013-06-22 22:39:00,78.3,73.0,30.03,East,87,10.0,-999.0,84,-99.99,,,0.01,weatherlink.com 1.10,2013-06-23 02:39:00,
2013-06-22 22:54:00,78.6,75.0,30.04,East,81,9.0,-999.0,87,-99.99,,,0.01,weatherlink.com 1.10,2013-06-23 02:54:00,
2013-06-22 23:09:00,78.0,75.0,30.04,NE,56,5.0,-999.0,89,-99.99,,,0.01,weatherlink.com 1.10,2013-06-23 03:09:00,
2013-06-22 23:24:00,78.3,75.0,30.05,ENE,63,4.0,-999.0,89,-99.99,,,0.02,weatherlink.com 1.10,2013-06-23 03:24:00,
2013-06-22 23:39:00,78.3,75.0,30.05,ENE,71,6.0,-999.0,89,-99.99,,,0.02,weatherlink.com 1.10,2013-06-23 03:39:00,
2013-06-22 23:54:00,78.5,75.0,30.05,ENE,77,6.0,-999.0,89,-99.99,,,0.02,weatherlink.com 1.10,2013-06-23 03:54:00,